Skip Page Navigation
NASA JPL Caltech
NASA Logo - Jet Propulsion Laboratory + View the NASA Portal
+ Near-Earth Object (NEO) Program
Search JPL
JPL Home Earth Solar System Stars & Galaxies Technology
JPL Solar System Dynamics
BODIES ORBITS EPHEMERIDES TOOLS PHYSICAL DATA DISCOVERY FAQ SITE MAP
JPL Small-Body Database Browser
Search: [ help ]  
13437 Wellton-Persson (1999 WF8)
Classification: Main-belt Asteroid          SPK-ID: 2013437
Ephemeris | Orbit Diagram | Orbital Elements | Physical Parameters | Discovery Circumstances ]

[ show orbit diagram ]
Orbital Elements at Epoch 2456400.5 (2013-Apr-18.0) TDB
Reference: MPO250345 (heliocentric ecliptic J2000)
 Element Value Uncertainty (1-sigma)   Units 
e 0.0882949 n/a  
a 2.3472027 n/a AU
q 2.1399567 n/a AU
i 1.45017 n/a deg
node 171.90243 n/a deg
peri 161.82229 n/a deg
M 340.48927 n/a deg
tp 2456471.6861244
(2013-Jun-28.18612440)
n/a JED
period 1313.4826218
3.60
n/a
n/a
d
yr
n 0.27408052 n/a deg/d
Q 2.5544487 n/a AU
  Orbit Determination Parameters
   # obs. used (total)      681  
   first obs. used      1977-??-??  
   last obs. used      2012-05-23  
   # oppositions      15  
   planetary ephem.      DE403  
   condition code      0  
   fit RMS      0.53  
   data source      MPC:mpn  
   producer      MPCLINUX  

Additional Information
 T_jup = 3.554 

Ephemeris | Orbit Diagram | Orbital Elements | Physical Parameters | Discovery Circumstances ]

Physical Parameter Table
Parameter Symbol Value Units Sigma Reference Notes
absolute magnitude H 14.8 mag n/a PDS3 (MPC 37607)  

13437 Wellton-Persson           Discovered 1999 Nov. 28 by Uppsala-DLR Asteroid Survey at Kvistaberg.
Helen Wellton (b. 1961) and Claes Wellton Persson (b. 1943) are Swedish entrepreneurs whose interest in minor planets and comets has resulted in generous support and sponsorship for the Uppsala-DLR Asteroid Survey. The name was suggested by G. Hahn.
NOTE: some special characters may not display properly (any characters within {} are an attempt to place the proper accent above a character)
Reference: 20000726/MPCPages.arcLast Updated: 2013-03-29

Alternate Designations
 1999 WF8 = 1977 RP17 = 1997 AX20 = 1998 MS20 
Ephemeris | Orbit Diagram | Orbital Elements | Physical Parameters | Discovery Circumstances ]
ABOUT SSD CREDITS/AWARDS PRIVACY/COPYRIGHT GLOSSARY LINKS
FirstGov 2013-May-21 00:49 UT
(server date/time)  
NASA Home Page
Site Manager:   Donald K. Yeomans
Webmaster  Alan B. Chamberlin